Regional Weather Roundup
Issued by NWS

Home | Current Version | Previous Version | Text Only | Print | Product List | Glossary On
Versions: 1 2 3 4 5 6 7 8 9 10 11 12 13 14 15 16 17 18 19 20 21 22 23 24 25 26 27 28 29 30 31 32 33 34 35 36 37 38 39 40 41 42 43 44 45 46 47 48 49 50
000
ASUS46 KPQR 311310
RWROR

OREGON REGIONAL WEATHER ROUNDUP
NATIONAL WEATHER SERVICE PORTLAND OR
600 AM PDT MON AUG 31 2015

NOTE: "FAIR" INDICATES FEW OR NO CLOUDS BELOW 12,000 FEET WITH
NO SIGNIFICANT WEATHER AND/OR OBSTRUCTIONS TO VISIBILITY.

ORZ001>013-311400-
NORTHWEST OREGON


CITY           SKY/WX    TMP DP  RH WIND       PRES   REMARKS
ASTORIA        LGT RAIN  61  59  93 S13       29.99R
NEWPORT        PTCLDY    55  54  94 S3        30.08S
PORTLAND       CLOUDY    62  55  77 S9        30.05S
VANCOUVER WA   CLOUDY    62  53  72 SE6       30.05S
SCAPPOOSE      CLOUDY    60  54  80 CALM      30.03F
HILLSBORO      CLOUDY    60  54  80 S9        30.04S
AURORA         CLOUDY    59  53  80 S7        30.06F
MCMINNVILLE    CLOUDY    59  55  87 E3        30.06S
SALEM          CLOUDY    59  54  83 S7        30.06S
CORVALLIS      PTCLDY    52  48  87 CALM      30.09S
EUGENE         PTCLDY    50  48  93 SW3       30.08F
$$

ORZ021-028-311400-
SOUTHWEST OREGON


CITY           SKY/WX    TMP DP  RH WIND       PRES   REMARKS
NORTH BEND     CLOUDY    55  55 100 SE6       30.08S
BROOKINGS      CLEAR     53  53 100 CALM      30.04S
ROSEBURG       PTCLDY    54  51  90 CALM      30.08S
SEXTON SUMMIT  CLEAR     48  45  89 SE6       30.10S
MEDFORD        CLEAR     52  47  83 CALM      30.08S
$$

ORZ014>016-041-311400-
COLUMBIA GORGE


CITY           SKY/WX    TMP DP  RH WIND       PRES   REMARKS
TROUTDALE      CLOUDY    58  54  86 E3        30.06S
THE DALLES     MOCLDY    56  47  71 SW6       30.03S
$$

ORZ029>031-041-044-049-050-061>064-502-503-505>511-311400-
EASTERN OREGON


CITY           SKY/WX    TMP DP  RH WIND       PRES   REMARKS
REDMOND        CLEAR     39  37  92 CALM      30.09S
BEND           CLEAR     39  37  93 CALM      30.10S
PRINEVILLE     CLEAR     39  37  93 CALM      30.10S
KLAMATH FALLS  CLEAR     40  37  89 CALM      30.11F
LAKEVIEW       PTCLDY    39  36  87 N7          N/A  WCI  34
HERMISTON      PTCLDY    55  44  66 S7        30.03S
PENDLETON      CLEAR     50  42  74 S7        30.04F
JOHN DAY       PTCLDY    48  43  82 SE8       30.12R
MEACHAM        MOCLDY    40  37  89 CALM      30.10S
LA GRANDE      PTCLDY    50  37  62 S5        30.08S
BAKER CITY     MOCLDY    39  38  96 NW5       30.11R
BURNS          PTCLDY    35  31  85 N6        30.14R WCI  30
ROME             N/A     43  31  62 SE5       30.11R
ONTARIO        PTCLDY    51  42  71 SW6       30.08R
$$


USA.gov is the U.S. government's official web portal to all federal, state and local government web resources and services.